This is the latest recevied weather packets stored in our database for station/object KD2ZLA. If no packets are shown the sender has not sent any weather packets the latest 10 day(s).
| Time | Temp. | Humidity | Pressure | Rain* | Wind** | Luminosity | Snow |
|---|---|---|---|---|---|---|---|
| 1777371386 | 10° C | 67% | 1016.6 hPa | 0 mm | - | 17 W/m² | - |
| 1777371082 | 10° C | 61% | 1016.8 hPa | 0 mm | - | 13 W/m² | - |
| 1777370778 | 10° C | 59% | 1016.6 hPa | 0 mm | - | 9 W/m² | - |
| 1777370474 | 10.56° C | 58% | 1016.8 hPa | 0 mm | - | 6 W/m² | - |
| 1777370174 | 10.56° C | 58% | 1017 hPa | 0 mm | - | 4 W/m² | - |
| 1777369872 | 10.56° C | 57% | 1016.9 hPa | 0 mm | - | 2 W/m² | - |
| 1777369568 | 11.11° C | 56% | 1016.9 hPa | 0 mm | - | 1 W/m² | - |
| 1777369264 | 11.67° C | 54% | 1016.9 hPa | 0 mm | - | 0 W/m² | - |
| 1777368963 | 11.67° C | 53% | 1017 hPa | 0 mm | - | 0 W/m² | - |
| 1777368657 | 12.22° C | 52% | 1017.1 hPa | 0 mm | - | 0 W/m² | - |
| 1777368357 | 12.22° C | 52% | 1017.4 hPa | 0 mm | - | 0 W/m² | - |
| 1777368055 | 12.78° C | 51% | 1017.4 hPa | 0 mm | - | 0 W/m² | - |
| 1777367752 | 12.78° C | 50% | 1017.4 hPa | 0 mm | - | 0 W/m² | - |
| 1777367449 | 12.78° C | 49% | 1017.4 hPa | 0 mm | - | 0 W/m² | - |
| 1777367148 | 13.33° C | 49% | 1017 hPa | 0 mm | - | 0 W/m² | - |
| 1777366844 | 13.33° C | 48% | 1017.2 hPa | 0 mm | - | 0 W/m² | - |
| 1777366539 | 13.33° C | 48% | 1017.1 hPa | 0 mm | - | 0 W/m² | - |
| 1777365936 | 13.33° C | 47% | 1016.9 hPa | 0 mm | - | 0 W/m² | - |
| 1777365632 | 13.89° C | 47% | 1017 hPa | 0 mm | - | 0 W/m² | - |
| 1777365331 | 13.33° C | 48% | 1017.1 hPa | 0 mm | - | 0 W/m² | - |
| 1777365030 | 13.33° C | 47% | 1017.1 hPa | 0 mm | - | 0 W/m² | - |
| 1777364726 | 13.89° C | 47% | 1017.1 hPa | 0 mm | - | 0 W/m² | - |
| 1777364421 | 13.89° C | 47% | 1017.1 hPa | 0 mm | - | 0 W/m² | - |
| 1777364117 | 13.89° C | 47% | 1017.2 hPa | 0 mm | - | 0 W/m² | - |
| 1777363814 | 13.33° C | 47% | 1017.4 hPa | 0 mm | - | 0 W/m² | - |
* Rain latest hour (hover to see other rain measurements)
** Current wind speed in m/s (hover to see current wind gust speed)